QPF
0.00 0.00 0.00 0.00 0.00 0.00 0.00 0.00 0.00 0.00 0.00 0.00 0.00 0.00 0.00 0.00 0.00 0.00 0.00 0.00 0.00 0.00 0.00 0.00 0.00 0.01 0.01 0.02 0.05 0.08 0.07 0.07 0.09 0.09 0.07 0.06 0.06 0.05 0.04 0.05 0.08 0.07 0.06 0.06
0.00 0.00 0.00 0.00 0.00 0.00 0.00 0.00 0.00 0.00 0.00 0.00 0.00 0.00 0.00 0.00 0.00 0.00 0.00 0.00 0.00 0.01 0.00 0.00 0.00 0.01 0.02 0.02 0.05 0.08 0.08 0.08 0.07 0.09 0.09 0.08 0.08 0.06 0.05 0.07 0.09 0.08 0.07 0.06
0.00 0.00 0.00 0.00 0.00 0.00 0.00 0.00 0.00 0.00 0.00 0.00 0.00 0.00 0.00 0.00 0.00 0.00 0.00 0.00 0.00 0.00 0.00 0.00 0.01 0.01 0.01 0.02 0.04 0.07 0.09 0.10 0.12 0.11 0.10 0.07 0.07 0.09 0.08 0.08 0.07 0.06 0.07 0.08
0.00 0.00 0.00 0.00 0.00 0.00 0.00 0.00 0.00 0.00 0.00 0.00 0.00 0.00 0.00 0.00 0.00 0.00 0.00 0.00 0.00 0.00 0.00 0.01 0.01 0.02 0.01 0.01 0.03 0.07 0.09 0.07 0.11 0.12 0.09 0.07 0.06 0.07 0.10 0.09 0.08 0.08 0.08 0.09
0.00 0.00 0.00 0.00 0.00 0.00 0.00 0.00 0.00 0.00 0.00 0.00 0.00 0.00 0.00 0.00 0.00 0.00 0.00 0.00 0.00 0.00 0.00 0.01 0.01 0.02 0.01 0.03 0.04 0.05 0.06 0.05 0.06 0.08 0.08 0.08 0.06 0.08 0.08 0.09 0.10 0.10 0.09 0.08
0.00 0.00 0.00 0.00 0.00 0.00 0.00 0.00 0.00 0.00 0.00 0.00 0.00 0.00 0.00 0.00 0.00 0.00 0.00 0.00 0.00 0.00 0.00 0.01 0.01 0.02 0.01 0.03 0.04 0.05 0.05 0.04 0.04 0.05 0.06 0.07 0.09 0.10 0.07 0.06 0.09 0.10 0.09 0.07
0.00 0.00 0.00 0.00 0.00 0.00 0.00 0.00 0.00 0.00 0.00 0.00 0.00 0.00 0.00 0.00 0.00 0.00 0.00 0.00 0.00 0.01 0.00 0.01 0.01 0.02 0.02 0.03 0.04 0.06 0.06 0.05 0.04 0.04 0.05 0.08 0.11 0.12 0.10 0.08 0.10 0.09 0.09 0.08
0.00 0.00 0.00 0.00 0.00 0.00 0.00 0.00 0.00 0.00 0.00 0.00 0.00 0.00 0.00 0.00 0.00 0.00 0.00 0.00 0.00 0.00 0.01 0.00 0.01 0.01 0.02 0.04 0.06 0.07 0.06 0.05 0.04 0.04 0.06 0.08 0.10 0.09 0.09 0.09 0.08 0.06 0.05 0.05
0.00 0.00 0.00 0.00 0.00 0.00 0.00 0.00 0.00 0.00 0.00 0.00 0.00 0.00 0.00 0.00 0.00 0.00 0.00 0.00 0.00 0.00 0.00 0.01 0.01 0.01 0.01 0.02 0.02 0.03 0.03 0.04 0.06 0.08 0.08 0.08 0.08 0.07 0.08 0.09 0.08 0.06 0.05 0.04
0.00 0.00 0.00 0.00 0.00 0.00 0.00 0.00 0.00 0.00 0.00 0.00 0.00 0.00 0.00 0.00 0.00 0.00 0.00 0.00 0.00 0.00 0.00 0.00 0.00 0.00 0.01 0.01 0.02 0.02 0.04 0.05 0.07 0.08 0.08 0.06 0.07 0.06 0.05 0.05 0.05 0.05 0.05 0.06
0.00 0.00 0.00 0.00 0.00 0.00 0.00 0.00 0.00 0.00 0.00 0.00 0.00 0.00 0.00 0.00 0.00 0.00 0.00 0.00 0.00 0.01 0.02 0.01 0.00 0.00 0.01 0.02 0.02 0.03 0.04 0.04 0.07 0.07 0.06 0.07 0.07 0.06 0.04 0.04 0.05 0.07 0.07 0.08
0.00 0.00 0.00 0.00 0.00 0.00 0.00 0.00 0.00 0.00 0.00 0.00 0.00 0.00 0.00 0.00 0.00 0.00 0.00 0.00 0.00 0.00 0.01 0.01 0.00 0.00 0.01 0.01 0.02 0.02 0.03 0.02 0.04 0.05 0.06 0.09 0.09 0.08 0.05 0.03 0.03 0.05 0.07 0.09
0.00 0.00 0.00 0.00 0.00 0.00 0.00 0.00 0.00 0.00 0.00 0.00 0.00 0.00 0.00 0.00 0.00 0.00 0.00 0.00 0.00 0.00 0.00 0.00 0.00 0.00 0.00 0.01 0.02 0.02 0.02 0.02 0.02 0.04 0.06 0.08 0.12 0.12 0.09 0.05 0.04 0.04 0.04 0.04
0.00 0.00 0.00 0.00 0.00 0.00 0.00 0.00 0.00 0.00 0.00 0.00 0.00 0.00 0.00 0.00 0.00 0.00 0.00 0.00 0.00 0.00 0.01 0.01 0.00 0.00 0.01 0.02 0.02 0.02 0.02 0.02 0.02 0.04 0.05 0.05 0.06 0.06 0.06 0.05 0.05 0.06 0.05 0.05
0.00 0.00 0.00 0.00 0.00 0.00 0.00 0.00 0.00 0.00 0.00 0.00 0.00 0.00 0.00 0.00 0.00 0.00 0.00 0.00 0.00 0.00 0.00 0.00 0.00 0.00 0.01 0.01 0.03 0.02 0.01 0.01 0.01 0.01 0.02 0.02 0.02 0.02 0.02 0.02 0.03 0.05 0.05 0.05
0.00 0.00 0.00 0.00 0.00 0.00 0.00 0.00 0.00 0.00 0.00 0.00 0.00 0.00 0.00 0.00 0.00 0.00 0.00 0.00 0.00 0.00 0.00 0.00 0.00 0.01 0.01 0.01 0.02 0.02 0.01 0.01 0.01 0.01 0.02 0.02 0.01 0.01 0.02 0.02 0.03 0.03 0.06 0.06
0.00 0.00 0.00 0.00 0.00 0.00 0.00 0.00 0.00 0.00 0.00 0.00 0.00 0.00 0.00 0.00 0.00 0.00 0.00 0.00 0.00 0.00 0.00 0.00 0.00 0.01 0.01 0.01 0.01 0.01 0.01 0.01 0.01 0.02 0.02 0.02 0.02 0.01 0.02 0.02 0.02 0.03 0.04 0.05
0.00 0.00 0.00 0.00 0.00 0.00 0.00 0.00 0.00 0.00 0.00 0.00 0.00 0.00 0.00 0.00 0.00 0.00 0.00 0.00 0.00 0.00 0.00 0.01 0.01 0.01 0.01 0.02 0.01 0.01 0.01 0.01 0.01 0.01 0.01 0.01 0.01 0.01 0.01 0.01 0.02 0.02 0.02 0.03
0.00 0.00 0.00 0.00 0.00 0.00 0.00 0.00 0.00 0.00 0.00 0.00 0.00 0.00 0.00 0.00 0.00 0.00 0.00 0.00 0.00 0.00 0.01 0.01 0.02 0.02 0.02 0.02 0.02 0.02 0.01 0.01 0.02 0.01 0.01 0.01 0.01 0.01 0.01 0.01 0.01 0.01 0.02 0.03
0.00 0.00 0.00 0.00 0.00 0.00 0.00 0.00 0.00 0.00 0.00 0.00 0.00 0.00 0.00 0.00 0.00 0.00 0.00 0.00 0.00 0.00 0.01 0.01 0.01 0.01 0.02 0.02 0.02 0.02 0.02 0.01 0.01 0.01 0.01 0.01 0.01 0.01 0.00 0.01 0.01 0.02 0.03 0.04
0.00 0.00 0.00 0.00 0.00 0.00 0.00 0.00 0.00 0.00 0.00 0.00 0.00 0.00 0.00 0.00 0.00 0.00 0.00 0.00 0.00 0.00 0.01 0.01 0.01 0.01 0.01 0.02 0.02 0.01 0.01 0.01 0.01 0.00 0.00 0.00 0.01 0.00 0.00 0.00 0.00 0.01 0.01 0.02
0.00 0.00 0.00 0.00 0.00 0.00 0.00 0.00 0.00 0.00 0.00 0.00 0.00 0.00 0.00 0.00 0.00 0.00 0.00 0.01 0.01 0.01 0.01 0.01 0.02 0.02 0.02 0.02 0.02 0.01 0.01 0.01 0.00 0.00 0.00 0.01 0.01 0.00 0.01 0.01 0.01 0.00 0.00 0.01
0.00 0.00 0.00 0.00 0.00 0.00 0.00 0.00 0.00 0.00 0.00 0.00 0.00 0.00 0.00 0.00 0.00 0.00 0.00 0.01 0.01 0.02 0.01 0.02 0.02 0.02 0.02 0.02 0.01 0.01 0.01 0.01 0.01 0.01 0.01 0.01 0.01 0.01 0.01 0.01 0.00 0.00 0.00 0.01
0.00 0.00 0.00 0.00 0.00 0.00 0.00 0.00 0.00 0.00 0.00 0.00 0.00 0.00 0.01 0.01 0.01 0.00 0.01 0.01 0.01 0.01 0.02 0.02 0.02 0.02 0.02 0.01 0.01 0.01 0.01 0.01 0.01 0.02 0.01 0.01 0.01 0.01 0.01 0.01 0.01 0.01 0.01 0.01
0.01 0.01 0.00 0.00 0.00 0.00 0.00 0.00 0.00 0.00 0.00 0.00 0.01 0.02 0.02 0.01 0.01 0.01 0.01 0.01 0.01 0.02 0.03 0.03 0.02 0.02 0.01 0.01 0.01 0.01 0.01 0.00 0.01 0.01 0.01 0.00 0.00 0.01 0.01 0.02 0.02 0.03 0.03 0.02
0.01 0.01 0.01 0.01 0.00 0.00 0.00 0.00 0.00 0.00 0.00 0.01 0.02 0.02 0.02 0.01 0.01 0.01 0.02 0.03 0.03 0.03 0.03 0.03 0.03 0.02 0.01 0.01 0.01 0.00 0.00 0.00 0.00 0.00 0.01 0.01 0.01 0.02 0.02 0.03 0.03 0.02 0.02 0.02
MSLP
1012.44 1012.94 1013.35 1013.63 1013.79 1013.84 1013.79 1013.64 1013.40 1013.08 1012.71 1012.29 1011.85 1011.44 1011.10 1010.87 1010.77 1010.81 1010.98 1011.26 1011.61 1011.98 1012.33 1012.65 1012.92 1013.17 1013.41 1013.67 1013.97 1014.33 1014.74 1015.18 1015.62 1016.03 1016.39 1016.68 1016.90 1017.06 1017.17 1017.25 1017.34 1017.43 1017.53 1017.65
1013.00 1013.42 1013.73 1013.91 1014.00 1014.00 1013.94 1013.82 1013.65 1013.42 1013.12 1012.76 1012.35 1011.93 1011.53 1011.20 1010.97 1010.88 1010.92 1011.08 1011.33 1011.64 1011.97 1012.28 1012.56 1012.81 1013.06 1013.33 1013.63 1013.99 1014.40 1014.86 1015.32 1015.77 1016.17 1016.51 1016.76 1016.94 1017.06 1017.14 1017.20 1017.26 1017.34 1017.44
1013.41 1013.73 1013.92 1014.02 1014.04 1014.03 1014.00 1013.95 1013.87 1013.75 1013.55 1013.26 1012.89 1012.45 1011.97 1011.53 1011.16 1010.90 1010.80 1010.84 1011.00 1011.26 1011.56 1011.88 1012.18 1012.46 1012.72 1012.99 1013.29 1013.64 1014.05 1014.50 1014.97 1015.44 1015.88 1016.25 1016.54 1016.74 1016.87 1016.94 1016.98 1017.02 1017.07 1017.14
1013.59 1013.80 1013.90 1013.93 1013.93 1013.94 1013.97 1014.03 1014.09 1014.10 1014.02 1013.81 1013.46 1012.98 1012.42 1011.83 1011.30 1010.88 1010.62 1010.53 1010.61 1010.82 1011.12 1011.46 1011.80 1012.11 1012.41 1012.69 1012.98 1013.31 1013.69 1014.12 1014.59 1015.07 1015.52 1015.92 1016.24 1016.46 1016.60 1016.66 1016.69 1016.69 1016.71 1016.75
1013.53 1013.65 1013.68 1013.68 1013.69 1013.76 1013.90 1014.10 1014.32 1014.48 1014.51 1014.38 1014.04 1013.51 1012.85 1012.11 1011.40 1010.81 1010.39 1010.18 1010.18 1010.36 1010.67 1011.05 1011.44 1011.80 1012.13 1012.43 1012.72 1013.02 1013.37 1013.77 1014.21 1014.68 1015.13 1015.54 1015.87 1016.11 1016.25 1016.30 1016.30 1016.27 1016.25 1016.26
1013.26 1013.32 1013.31 1013.30 1013.36 1013.53 1013.81 1014.17 1014.55 1014.85 1015.00 1014.93 1014.59 1014.01 1013.23 1012.35 1011.47 1010.70 1010.14 1009.82 1009.76 1009.92 1010.25 1010.68 1011.13 1011.55 1011.93 1012.24 1012.52 1012.80 1013.11 1013.46 1013.86 1014.29 1014.73 1015.13 1015.46 1015.70 1015.83 1015.87 1015.84 1015.78 1015.72 1015.69
1012.85 1012.86 1012.85 1012.88 1013.01 1013.29 1013.71 1014.22 1014.75 1015.19 1015.43 1015.41 1015.07 1014.42 1013.54 1012.52 1011.50 1010.59 1009.90 1009.50 1009.39 1009.55 1009.92 1010.40 1010.92 1011.40 1011.81 1012.15 1012.42 1012.66 1012.92 1013.21 1013.56 1013.94 1014.34 1014.71 1015.03 1015.25 1015.36 1015.38 1015.32 1015.22 1015.12 1015.06
1012.37 1012.37 1012.37 1012.46 1012.67 1013.06 1013.60 1014.24 1014.88 1015.42 1015.73 1015.73 1015.38 1014.69 1013.73 1012.62 1011.49 1010.48 1009.72 1009.26 1009.14 1009.31 1009.72 1010.25 1010.83 1011.36 1011.81 1012.15 1012.41 1012.61 1012.81 1013.04 1013.32 1013.64 1013.99 1014.33 1014.61 1014.80 1014.89 1014.87 1014.78 1014.64 1014.50 1014.41
1011.91 1011.92 1011.96 1012.09 1012.38 1012.84 1013.46 1014.18 1014.89 1015.48 1015.82 1015.84 1015.48 1014.76 1013.77 1012.61 1011.43 1010.39 1009.60 1009.14 1009.02 1009.22 1009.67 1010.26 1010.88 1011.45 1011.92 1012.26 1012.49 1012.66 1012.80 1012.96 1013.17 1013.42 1013.71 1013.99 1014.23 1014.39 1014.45 1014.40 1014.27 1014.10 1013.93 1013.80
1011.55 1011.58 1011.65 1011.82 1012.14 1012.63 1013.27 1014.00 1014.72 1015.31 1015.65 1015.66 1015.31 1014.60 1013.61 1012.47 1011.32 1010.31 1009.55 1009.12 1009.05 1009.29 1009.77 1010.39 1011.04 1011.63 1012.11 1012.44 1012.65 1012.77 1012.86 1012.96 1013.10 1013.29 1013.52 1013.75 1013.95 1014.07 1014.09 1014.01 1013.85 1013.65 1013.45 1013.30
1011.33 1011.39 1011.47 1011.65 1011.96 1012.42 1013.02 1013.70 1014.36 1014.89 1015.20 1015.19 1014.85 1014.18 1013.26 1012.20 1011.14 1010.22 1009.55 1009.19 1009.17 1009.46 1009.97 1010.61 1011.27 1011.86 1012.33 1012.65 1012.84 1012.94 1012.98 1013.04 1013.13 1013.28 1013.45 1013.64 1013.80 1013.88 1013.87 1013.77 1013.59 1013.36 1013.14 1012.98
1011.26 1011.34 1011.42 1011.58 1011.84 1012.22 1012.72 1013.28 1013.83 1014.27 1014.51 1014.49 1014.16 1013.56 1012.74 1011.81 1010.88 1010.10 1009.54 1009.28 1009.33 1009.66 1010.19 1010.83 1011.48 1012.06 1012.52 1012.83 1013.01 1013.10 1013.14 1013.18 1013.25 1013.36 1013.51 1013.66 1013.79 1013.85 1013.82 1013.70 1013.50 1013.27 1013.04 1012.86
1011.33 1011.41 1011.49 1011.59 1011.77 1012.04 1012.40 1012.81 1013.21 1013.53 1013.69 1013.63 1013.33 1012.80 1012.11 1011.32 1010.56 1009.93 1009.51 1009.34 1009.45 1009.80 1010.34 1010.96 1011.59 1012.16 1012.61 1012.93 1013.12 1013.23 1013.29 1013.34 1013.42 1013.54 1013.68 1013.81 1013.92 1013.97 1013.93 1013.81 1013.61 1013.38 1013.15 1012.97
1011.50 1011.58 1011.63 1011.68 1011.76 1011.91 1012.11 1012.35 1012.59 1012.78 1012.84 1012.74 1012.46 1012.01 1011.44 1010.81 1010.20 1009.71 1009.41 1009.33 1009.48 1009.84 1010.35 1010.95 1011.55 1012.10 1012.55 1012.90 1013.14 1013.30 1013.41 1013.52 1013.64 1013.78 1013.93 1014.07 1014.18 1014.22 1014.18 1014.06 1013.88 1013.66 1013.44 1013.27
1011.70 1011.78 1011.81 1011.81 1011.81 1011.83 1011.89 1011.98 1012.07 1012.12 1012.09 1011.95 1011.69 1011.30 1010.83 1010.32 1009.84 1009.47 1009.25 1009.21 1009.38 1009.72 1010.20 1010.75 1011.33 1011.87 1012.35 1012.74 1013.05 1013.29 1013.50 1013.68 1013.87 1014.06 1014.24 1014.39 1014.50 1014.55 1014.51 1014.41 1014.25 1014.05 1013.87 1013.71
1011.90 1011.98 1011.99 1011.96 1011.90 1011.84 1011.79 1011.75 1011.72 1011.66 1011.55 1011.37 1011.10 1010.75 1010.35 1009.92 1009.53 1009.23 1009.05 1009.03 1009.17 1009.47 1009.90 1010.41 1010.96 1011.51 1012.02 1012.48 1012.88 1013.24 1013.55 1013.83 1014.10 1014.34 1014.56 1014.73 1014.85 1014.90 1014.87 1014.79 1014.65 1014.50 1014.35 1014.23
1012.05 1012.12 1012.13 1012.09 1012.01 1011.91 1011.80 1011.69 1011.57 1011.43 1011.26 1011.04 1010.77 1010.43 1010.06 1009.68 1009.33 1009.04 1008.86 1008.82 1008.92 1009.16 1009.53 1009.99 1010.52 1011.08 1011.64 1012.18 1012.69 1013.16 1013.59 1013.98 1014.32 1014.62 1014.87 1015.06 1015.18 1015.22 1015.21 1015.14 1015.04 1014.93 1014.83 1014.77
1012.11 1012.18 1012.21 1012.18 1012.12 1012.02 1011.90 1011.76 1011.61 1011.44 1011.23 1010.99 1010.70 1010.37 1010.00 1009.63 1009.27 1008.98 1008.77 1008.67 1008.71 1008.88 1009.19 1009.61 1010.13 1010.70 1011.31 1011.93 1012.54 1013.12 1013.65 1014.13 1014.55 1014.89 1015.16 1015.34 1015.46 1015.50 1015.49 1015.44 1015.37 1015.31 1015.28 1015.29
1012.08 1012.15 1012.20 1012.21 1012.18 1012.12 1012.04 1011.92 1011.78 1011.61 1011.40 1011.15 1010.86 1010.52 1010.15 1009.76 1009.39 1009.07 1008.81 1008.66 1008.63 1008.75 1009.00 1009.38 1009.88 1010.48 1011.13 1011.82 1012.51 1013.17 1013.78 1014.32 1014.78 1015.15 1015.42 1015.60 1015.69 1015.73 1015.72 1015.69 1015.66 1015.66 1015.70 1015.78
1012.01 1012.06 1012.12 1012.16 1012.19 1012.19 1012.16 1012.10 1012.00 1011.86 1011.68 1011.44 1011.16 1010.82 1010.45 1010.06 1009.68 1009.33 1009.04 1008.85 1008.77 1008.84 1009.05 1009.40 1009.89 1010.49 1011.17 1011.89 1012.63 1013.35 1014.00 1014.58 1015.05 1015.41 1015.67 1015.83 1015.91 1015.93 1015.92 1015.92 1015.94 1016.00 1016.11 1016.27
1011.92 1011.94 1011.99 1012.05 1012.13 1012.19 1012.22 1012.23 1012.19 1012.10 1011.96 1011.76 1011.51 1011.20 1010.85 1010.48 1010.10 1009.75 1009.46 1009.25 1009.15 1009.19 1009.37 1009.71 1010.18 1010.77 1011.45 1012.19 1012.94 1013.66 1014.32 1014.89 1015.36 1015.70 1015.94 1016.07 1016.14 1016.15 1016.16 1016.18 1016.25 1016.37 1016.55 1016.80
1011.88 1011.83 1011.85 1011.92 1012.01 1012.12 1012.21 1012.27 1012.30 1012.27 1012.18 1012.04 1011.83 1011.57 1011.26 1010.93 1010.60 1010.28 1010.02 1009.83 1009.75 1009.79 1009.96 1010.28 1010.74 1011.31 1011.96 1012.67 1013.40 1014.09 1014.73 1015.27 1015.70 1016.02 1016.23 1016.35 1016.40 1016.43 1016.46 1016.52 1016.64 1016.83 1017.08 1017.39
1011.92 1011.79 1011.75 1011.79 1011.88 1012.00 1012.13 1012.23 1012.30 1012.33 1012.29 1012.20 1012.06 1011.86 1011.63 1011.37 1011.10 1010.86 1010.66 1010.53 1010.49 1010.55 1010.74 1011.06 1011.49 1012.02 1012.63 1013.28 1013.95 1014.59 1015.17 1015.66 1016.05 1016.34 1016.54 1016.66 1016.73 1016.78 1016.85 1016.96 1017.14 1017.38 1017.70 1018.07
1012.04 1011.83 1011.72 1011.70 1011.76 1011.87 1012.00 1012.12 1012.22 1012.27 1012.28 1012.25 1012.16 1012.03 1011.88 1011.71 1011.55 1011.40 1011.30 1011.25 1011.28 1011.39 1011.60 1011.91 1012.32 1012.80 1013.35 1013.93 1014.52 1015.09 1015.60 1016.04 1016.40 1016.67 1016.86 1017.00 1017.10 1017.20 1017.33 1017.50 1017.73 1018.04 1018.40 1018.81
1012.22 1011.92 1011.73 1011.66 1011.68 1011.75 1011.86 1011.97 1012.07 1012.13 1012.17 1012.16 1012.12 1012.07 1011.99 1011.92 1011.87 1011.84 1011.84 1011.90 1012.01 1012.18 1012.43 1012.74 1013.12 1013.56 1014.04 1014.54 1015.04 1015.53 1015.98 1016.37 1016.69 1016.96 1017.17 1017.35 1017.50 1017.67 1017.86 1018.09 1018.39 1018.74 1019.14 1019.57
1012.36 1011.99 1011.75 1011.63 1011.60 1011.64 1011.72 1011.80 1011.88 1011.94 1011.97 1011.98 1011.97 1011.96 1011.96 1011.98 1012.03 1012.11 1012.23 1012.39 1012.59 1012.83 1013.12 1013.44 1013.81 1014.20 1014.61 1015.04 1015.47 1015.88 1016.27 1016.62 1016.93 1017.21 1017.45 1017.68 1017.90 1018.13 1018.40 1018.70 1019.04 1019.43 1019.85 1020.29
Thickness
5811 5807 5805 5813 5818 5821 5818 5815 5812 5816 5827 5823 5820 5821 5825 5828 5825 5821 5818 5814 5809 5806 5807 5803 5799 5796 5789 5783 5778 5773 5769 5766 5762 5759 5757 5755 5754 5755 5755 5754 5753 5751 5750 5748
5797 5799 5813 5817 5815 5812 5811 5807 5809 5813 5822 5820 5818 5820 5828 5829 5825 5824 5820 5816 5813 5809 5805 5801 5798 5795 5791 5785 5780 5776 5771 5768 5764 5762 5759 5758 5756 5756 5757 5756 5754 5752 5751 5749
5795 5805 5812 5806 5803 5802 5805 5807 5809 5807 5815 5820 5815 5813 5820 5826 5827 5826 5824 5822 5819 5812 5806 5802 5799 5795 5792 5786 5782 5779 5775 5771 5767 5764 5761 5759 5756 5754 5755 5755 5755 5754 5752 5750
5796 5803 5801 5800 5800 5802 5798 5812 5810 5807 5804 5808 5809 5802 5815 5823 5821 5822 5822 5822 5820 5816 5812 5807 5802 5797 5793 5790 5786 5781 5776 5772 5769 5765 5762 5758 5755 5754 5755 5756 5756 5755 5752 5751
5790 5796 5794 5793 5802 5804 5806 5812 5809 5808 5806 5804 5807 5801 5816 5821 5815 5820 5823 5822 5822 5820 5816 5809 5805 5800 5796 5792 5787 5782 5777 5772 5769 5765 5762 5759 5758 5758 5758 5757 5755 5754 5753 5752
5795 5802 5803 5804 5810 5809 5807 5804 5802 5804 5806 5786 5800 5795 5803 5820 5819 5821 5824 5823 5821 5820 5816 5811 5807 5801 5795 5792 5787 5782 5777 5772 5769 5765 5763 5759 5757 5757 5756 5755 5754 5754 5754 5753
5777 5788 5801 5808 5797 5799 5800 5791 5778 5776 5779 5786 5801 5794 5806 5822 5825 5823 5822 5822 5821 5819 5815 5809 5803 5799 5794 5789 5785 5782 5776 5772 5769 5765 5762 5760 5758 5756 5754 5754 5754 5754 5754 5754
5767 5772 5792 5800 5800 5794 5796 5798 5781 5770 5776 5791 5791 5792 5814 5824 5826 5826 5825 5824 5820 5817 5814 5808 5803 5799 5793 5788 5784 5780 5776 5771 5768 5765 5762 5760 5758 5757 5756 5755 5755 5754 5754 5755
5776 5777 5797 5803 5808 5805 5793 5796 5815 5798 5789 5785 5793 5800 5814 5822 5820 5821 5820 5818 5815 5814 5811 5807 5803 5798 5792 5787 5783 5780 5774 5770 5766 5764 5760 5758 5756 5755 5755 5754 5753 5754 5753 5753
5785 5773 5785 5794 5798 5798 5805 5806 5794 5789 5769 5769 5782 5788 5800 5809 5812 5814 5813 5813 5812 5811 5809 5805 5800 5795 5791 5786 5781 5778 5773 5768 5765 5762 5759 5757 5755 5754 5753 5752 5750 5750 5749 5749
5785 5771 5773 5781 5780 5784 5786 5790 5792 5793 5792 5775 5773 5789 5818 5815 5815 5813 5812 5812 5810 5808 5805 5801 5796 5793 5788 5783 5779 5773 5770 5766 5762 5760 5757 5754 5752 5751 5750 5748 5747 5746 5746 5745
5779 5775 5768 5777 5793 5802 5799 5796 5791 5776 5773 5781 5784 5794 5820 5820 5820 5816 5811 5809 5807 5804 5802 5797 5793 5788 5783 5779 5775 5770 5767 5763 5759 5757 5754 5751 5748 5746 5744 5744 5743 5742 5741 5740
5771 5763 5751 5755 5767 5780 5785 5794 5798 5797 5790 5780 5777 5792 5813 5815 5815 5813 5808 5805 5801 5798 5796 5792 5787 5783 5779 5774 5770 5766 5763 5760 5757 5754 5750 5747 5744 5741 5739 5738 5738 5737 5736 5735
5771 5763 5762 5761 5770 5781 5776 5783 5791 5791 5779 5779 5784 5796 5804 5807 5807 5806 5804 5801 5798 5794 5790 5786 5782 5778 5774 5770 5765 5762 5759 5757 5753 5750 5746 5742 5739 5737 5735 5734 5732 5731 5730 5729
5764 5756 5764 5774 5781 5783 5782 5782 5784 5785 5790 5787 5792 5796 5804 5808 5808 5804 5801 5798 5793 5788 5785 5781 5778 5773 5769 5765 5761 5758 5754 5752 5749 5745 5741 5738 5735 5733 5730 5728 5726 5725 5724 5723
5754 5754 5758 5759 5770 5773 5773 5781 5783 5783 5789 5791 5794 5796 5809 5810 5807 5800 5796 5793 5788 5785 5783 5779 5775 5770 5765 5760 5757 5754 5750 5747 5744 5740 5737 5734 5731 5728 5725 5723 5721 5720 5718 5717
5748 5746 5745 5751 5761 5760 5756 5774 5779 5782 5790 5791 5787 5796 5802 5798 5796 5795 5793 5790 5787 5784 5781 5775 5771 5766 5761 5758 5754 5749 5746 5743 5739 5735 5732 5728 5725 5722 5720 5719 5717 5714 5712 5710
5739 5739 5745 5750 5744 5730 5767 5788 5788 5784 5788 5795 5796 5799 5797 5796 5796 5795 5793 5789 5785 5782 5777 5772 5768 5762 5758 5755 5751 5747 5742 5738 5734 5729 5726 5723 5720 5717 5714 5712 5710 5707 5705 5703
5735 5735 5740 5743 5737 5745 5761 5774 5779 5775 5776 5790 5791 5791 5791 5792 5788 5786 5788 5787 5783 5779 5774 5770 5765 5760 5754 5750 5746 5742 5737 5733 5728 5723 5719 5717 5715 5711 5708 5705 5702 5700 5697 5694
5726 5730 5734 5735 5732 5732 5756 5774 5781 5775 5764 5784 5786 5784 5783 5782 5777 5779 5781 5781 5777 5773 5768 5764 5760 5754 5748 5744 5741 5735 5730 5725 5720 5716 5713 5710 5708 5705 5701 5698 5695 5692 5689 5686
5714 5716 5723 5728 5730 5747 5758 5768 5769 5750 5758 5775 5780 5780 5778 5778 5781 5781 5777 5772 5769 5764 5760 5757 5751 5745 5741 5738 5734 5728 5723 5717 5713 5710 5706 5703 5700 5697 5693 5690 5687 5685 5682 5679
5715 5718 5716 5725 5724 5733 5750 5758 5755 5754 5762 5768 5772 5774 5772 5771 5771 5770 5766 5761 5758 5754 5751 5747 5742 5736 5733 5730 5726 5720 5715 5710 5707 5703 5699 5695 5692 5690 5686 5682 5679 5677 5674 5671
5712 5719 5728 5727 5729 5733 5743 5746 5749 5753 5754 5759 5763 5766 5765 5762 5760 5757 5754 5751 5747 5744 5741 5738 5734 5728 5724 5721 5718 5712 5707 5703 5700 5695 5691 5686 5683 5680 5677 5674 5671 5670 5667 5665
5700 5705 5712 5714 5722 5728 5733 5738 5742 5746 5748 5753 5756 5758 5757 5754 5751 5748 5744 5740 5736 5733 5730 5728 5724 5719 5714 5711 5708 5704 5699 5695 5691 5686 5681 5678 5674 5671 5667 5665 5663 5660 5657 5655
5692 5697 5702 5704 5712 5719 5724 5728 5732 5736 5741 5745 5748 5750 5749 5747 5742 5739 5734 5730 5727 5724 5720 5718 5715 5709 5705 5702 5698 5695 5691 5688 5683 5678 5674 5670 5666 5662 5657 5652 5646 5646 5640 5638
5684 5688 5692 5699 5704 5709 5711 5717 5723 5725 5729 5734 5736 5737 5739 5738 5733 5729 5724 5720 5717 5713 5710 5707 5704 5700 5696 5693 5689 5685 5683 5680 5676 5671 5667 5664 5660 5655 5651 5644 5636 5627 5627 5623